Location: La Trinit�
(48.1620°N, 3.4512°W)
Time: 02:54:16
(UTC+00:00)

JB-3 - Pass Details

Date: 08 May 2021
Orbit: 524 x 590 km, 97.3° (Epoch: 13 June)

Event Time Altitude Azimuth Distance (km) Brightness Sun altitude
Rises 21:20:41 0° 16° (NNE) 2,731 8.3 -14.4°
Reaches altitude 10° 21:22:53 10° 22° (NNE) 1,821 7.3 -14.6°
Maximum altitude 21:26:44 51° 99° (E) 679 4.4 -15.0°
Enters shadow 21:28:36 26° 164° (SSE) 1,062 5.2 -15.2°
